Lamoni, IA

2:40 PM CDT on September 25, 2017 (GMT -0500)
Lamoni Municipal

Weather History for KLWD - December, 2012

Change the Weather History Date:

Sunday, December 9, 2012

  Actual Average Record
Temperature  
Mean Temperature 29 °F 28 °F  
Max Temperature 40 °F 37 °F 58 °F (1990)
Min Temperature 18 °F 20 °F -6 °F (2005)
Degree Days  
Heating Degree Days 36 37  
Month to date heating degree days 202 316  
Since 1 July heating degree days 1398 1564  
Cooling Degree Days 0 0  
Month to date cooling degree days 0 0  
Year to date cooling degree days 1312 946  
Moisture  
Dew Point 29 °F    
Average Humidity 80    
Maximum Humidity 92    
Minimum Humidity 67    
Precipitation  
Precipitation 0.04 in 0.04 in 0.48 in (2003)
Month to date precipitation 0.06 0.47  
Sea Level Pressure  
Sea Level Pressure 29.90 in    
Wind  
Wind Speed 13 mph (NNW)    
Max Wind Speed 29 mph    
Max Gust Speed 35 mph    
Visibility 6 miles    
Events Rain    
T = Trace of Precipitation, MM = Missing Value Source: NWS Daily Summary

Daily Weather History Graph

Daily Weather History Graph

Search for Another Location

Airport or City:

Trip Planner

Search our weather history database for the weather conditions in past years. The results will help you decide how hot, cold, wet, or windy it might be!

Date:

Astronomy

Dec. 09, 2012 Rise Set
Actual Time 7:28 AM CST 4:48 PM CST
Civil Twilight 6:57 AM CST 5:19 PM CST
Nautical Twilight 6:23 AM CST 5:53 PM CST
Astronomical Twilight 5:49 AM CST 6:26 PM CST
Moon 3:00 AM CST (12/9) 1:56 PM CST (12/9)
Length of Visible Light 10h 21m
Length of Day
9h 20m
Waning Crescent, 18% of the Moon is Illuminated
Dec 9
Waning Crescent
Dec 13
New
Dec 19
First Quarter
Dec 28
Full
Jan 4
Last Quarter

Hourly Weather History & Observations

Time (CST) Temp. Windchill Dew Point Humidity Pressure Visibility Wind Dir Wind Speed Gust Speed Precip Events Conditions
12:53 AM 37.0 °F 33.3 °F 34.0 °F 89% 29.91 in 4.0 mi East 4.6 mph - N/A   Overcast
1:08 AM 37.4 °F 32.8 °F 33.8 °F 87% 29.88 in 2.5 mi ESE 5.8 mph - N/A   Overcast
1:50 AM 35.6 °F 30.7 °F 35.6 °F 100% 29.88 in 1.8 mi East 5.8 mph - 0.00 in Rain Light Rain
1:53 AM 36.0 °F 32.1 °F 35.1 °F 97% 29.90 in 1.8 mi East 4.6 mph - 0.00 in Rain Light Rain
2:10 AM 35.6 °F 31.7 °F 35.6 °F 100% 29.87 in 2.0 mi East 4.6 mph - 0.01 in   Overcast
2:42 AM 35.6 °F 32.8 °F 35.6 °F 100% 29.87 in 1.8 mi East 3.5 mph - 0.02 in   Overcast
2:53 AM 37.0 °F 33.3 °F 35.1 °F 93% 29.89 in 1.5 mi ENE 4.6 mph - 0.02 in   Overcast
3:53 AM 37.0 °F 34.5 °F 35.1 °F 93% 29.88 in 2.0 mi East 3.5 mph - 0.01 in   Overcast
4:27 AM 37.4 °F 34.9 °F 35.6 °F 93% 29.84 in 1.8 mi East 3.5 mph - N/A   Overcast
4:53 AM 37.0 °F 34.5 °F 35.1 °F 93% 29.86 in 1.8 mi ENE 3.5 mph - 0.01 in   Overcast
5:19 AM 37.4 °F 34.9 °F 35.6 °F 93% 29.84 in 2.0 mi NNE 3.5 mph - N/A   Overcast
5:27 AM 37.4 °F 34.9 °F 35.6 °F 93% 29.83 in 1.8 mi NE 3.5 mph - N/A   Overcast
5:53 AM 37.0 °F - 35.1 °F 93% 29.86 in 1.8 mi Calm Calm - N/A   Overcast
6:03 AM 37.4 °F - 35.6 °F 93% 29.84 in 2.0 mi Calm Calm - N/A   Overcast
6:53 AM 37.0 °F 34.5 °F 36.0 °F 96% 29.88 in 1.8 mi NW 3.5 mph - N/A   Overcast
7:53 AM 37.0 °F 34.5 °F 36.0 °F 96% 29.89 in 1.8 mi NNW 3.5 mph - N/A   Overcast
8:53 AM 37.0 °F - 36.0 °F 96% 29.89 in 1.5 mi Calm Calm - N/A   Overcast
9:18 AM 37.4 °F - 35.6 °F 93% 29.86 in 2.0 mi Calm Calm - N/A   Overcast
9:34 AM 37.4 °F - 35.6 °F 93% 29.85 in 4.0 mi Calm Calm - N/A   Overcast
9:53 AM 37.9 °F 35.5 °F 36.0 °F 93% 29.88 in 6.0 mi West 3.5 mph - N/A   Overcast
10:21 AM 39.2 °F 32.5 °F 35.6 °F 87% 29.86 in 8.0 mi WNW 10.4 mph - N/A   Overcast
10:53 AM 39.0 °F 32.3 °F 36.0 °F 89% 29.89 in 8.0 mi WNW 10.4 mph - N/A   Overcast
11:53 AM 39.0 °F 30.3 °F 36.0 °F 89% 29.87 in 6.0 mi WNW 16.1 mph 20.7 mph N/A   Overcast
12:53 PM 36.0 °F 26.7 °F 32.0 °F 86% 29.86 in 10.0 mi NW 15.0 mph - N/A   Overcast
1:53 PM 37.0 °F 26.4 °F 30.9 °F 79% 29.89 in 10.0 mi WNW 20.7 mph 25.3 mph N/A   Mostly Cloudy
2:12 PM 35.6 °F 23.7 °F 28.4 °F 75% 29.87 in 10.0 mi West 24.2 mph - N/A   Mostly Cloudy
2:53 PM 32.0 °F 19.5 °F 25.0 °F 75% 29.91 in 10.0 mi West 21.9 mph 29.9 mph N/A   Overcast
3:30 PM 30.2 °F 17.8 °F 21.2 °F 69% 29.89 in 10.0 mi WNW 19.6 mph 26.5 mph N/A   Scattered Clouds
3:53 PM 28.9 °F 16.1 °F 21.0 °F 72% 29.94 in 10.0 mi WNW 19.6 mph 28.8 mph N/A   Scattered Clouds
4:53 PM 26.1 °F 12.3 °F 18.0 °F 71% 29.96 in 10.0 mi WNW 19.6 mph 28.8 mph N/A   Scattered Clouds
5:04 PM 26.6 °F 13.4 °F 17.6 °F 69% 29.92 in 10.0 mi WNW 18.4 mph 27.6 mph N/A   Mostly Cloudy
5:53 PM 24.1 °F 9.8 °F 16.0 °F 71% 29.97 in 10.0 mi NW 19.6 mph - N/A   Overcast
6:53 PM 21.9 °F 6.2 °F 14.0 °F 72% 29.99 in 10.0 mi WNW 21.9 mph 29.9 mph N/A   Overcast
7:53 PM 19.9 °F 5.2 °F 12.0 °F 71% 30.02 in 10.0 mi WNW 17.3 mph 27.6 mph N/A   Overcast
8:53 PM 19.0 °F 1.6 °F 10.9 °F 71% 30.02 in 10.0 mi WNW 24.2 mph 31.1 mph N/A   Overcast
9:53 PM 19.0 °F 2.4 °F 10.9 °F 71% 30.02 in 10.0 mi WNW 21.9 mph 26.5 mph N/A   Overcast
10:53 PM 19.0 °F 2.0 °F 10.9 °F 71% 30.02 in 10.0 mi WNW 23.0 mph 31.1 mph N/A   Overcast
11:53 PM 18.0 °F 2.6 °F 10.0 °F 71% 30.03 in 10.0 mi NW 17.3 mph 27.6 mph N/A   Overcast